User: anonymous   Login
Location: Perryvale
(54.4667°N, 113.3833°W)
Time: 03:20:37
(UTC+00:00)
Language:

Transit 2A - Orbit

View from above orbital plane
View from above orbital plane
View from above satellite
View from above satellite

Ground track
Ground track

The orbit data is extracted from the following two-line orbital elements,

1 00045U 60007A   24144.51780287  .00000612  00000-0  17617-3 0  9999
2 00045  66.6930 194.7114 0254248 348.2059  11.3152 14.34705645271736
Epoch (UTC): 23 May 2024 12:25:38
Eccentricity: 0.0254248
inclination: 66.6930°
perigee height: 594 km
apogee height: 958 km
right ascension of ascending node: 194.7114°
argument of perigee: 348.2059°
revolutions per day: 14.34705645
mean anomaly at epoch: 11.3152°
orbit number at epoch: 27173

The dashed part of the orbit path shows where the satellite is in the earth's shadow,  

DLR